Вернуться в каталог

DELTA 1 DEB

АктивенPO
NORAD 12427·DEBRIS·🇺🇸 United States

Запущен Mar 5, 1978 с Vandenberg Space Force Base

Loading…

Ближайшие Пролёты (ближайшие 24 часа)

TLE

СвежийSource: Space-Track

Эпоха: Sep 14, 2026, 11:53 UTC

1 12427U 78026ET  26257.49524063  .00001561  00000-0  43990-3 0  9995
2 12427  99.1589  90.4545 0100372  48.3632 334.2577 14.44486843384793

Отслеживайте DELTA 1 DEB в реальном времени с AllMySat

Download on the App Store